| Date | Time | Temp. (oF) | Dew Point (oF) | Rel. Hum. (%) | Press. (in.) | Wind Dir. | Wind Speed (mph) | Hourly Rainfall (in.) |
|
|---|---|---|---|---|---|---|---|---|---|
| 1 | 03/03 | 00:00 | 36 | 34 | 96 | 29.70 | ENE | 8 | 0.00 |
| 2 | 03/02 | 23:00 | 37 | 35 | 94 | 29.71 | NNE | 8 | 0.00 |
| 3 | 03/02 | 22:00 | 37 | 34 | 91 | 29.74 | NE | 3 | 0.00 |
| 4 | 03/02 | 21:00 | 37 | 34 | 92 | 29.75 | NE | 2 | 0.00 |
| 5 | 03/02 | 20:00 | 37 | 35 | 93 | 29.76 | NNE | 0 | 0.00 |
| 6 | 03/02 | 19:00 | 37 | 34 | 91 | 29.79 | NNE | 1 | 0.00 |
| 7 | 03/02 | 18:00 | 37 | 33 | 87 | 29.81 | NE | 2 | 0.00 |
| 8 | 03/02 | 17:00 | 39 | 33 | 80 | 29.82 | NE | 1 | 0.00 |
| 9 | 03/02 | 16:00 | 42 | 31 | 66 | 29.81 | SE | 1 | 0.00 |
| 10 | 03/02 | 15:00 | 42 | 31 | 66 | 29.82 | SE | 0 | 0.00 |
| 11 | 03/02 | 14:00 | 42 | 30 | 64 | 29.83 | ESE | 3 | 0.00 |
| 12 | 03/02 | 13:00 | 43 | 31 | 64 | 29.87 | ESE | 3 | 0.00 |
| 13 | 03/02 | 12:00 | 42 | 31 | 65 | 29.89 | NNE | 3 | 0.00 |
| 14 | 03/02 | 11:00 | 41 | 31 | 68 | 29.90 | NNE | 4 | 0.00 |
| 15 | 03/02 | 10:00 | 39 | 30 | 70 | 29.92 | ENE | 7 | 0.00 |
| 16 | 03/02 | 09:00 | 38 | 30 | 74 | 29.94 | NNW | 3 | 0.00 |
| 17 | 03/02 | 08:00 | 33 | 29 | 86 | 29.96 | NNW | 1 | 0.00 |
| 18 | 03/02 | 07:00 | 31 | 27 | 87 | 29.93 | N | 3 | 0.00 |
| 19 | 03/02 | 06:00 | 33 | 28 | 82 | 29.92 | N | 2 | 0.00 |
| 20 | 03/02 | 05:00 | 34 | 28 | 79 | 29.93 | NNW | 2 | 0.00 |
| 21 | 03/02 | 04:00 | 35 | 28 | 78 | 29.92 | N | 3 | 0.00 |
| 22 | 03/02 | 03:00 | 33 | 27 | 81 | 29.93 | NNW | 1 | 0.00 |
| 23 | 03/02 | 02:00 | 34 | 28 | 80 | 29.95 | NW | 1 | 0.00 |
| 24 | 03/02 | 01:00 | 34 | 27 | 77 | 29.93 | N | 2 | 0.00 |